Location: Beekmeers
(50.8953°N, 3.6968°E)
Time: 13:29:25
(UTC+00:00)

Envisat - Visible Passes

Search period start: 22 July 2024 00:00
Search period end: 01 August 2024 00:00
Orbit: 762 x 764 km, 98.3° (Epoch: 22 July)

Date Brightness Start Highest point End Pass type
(mag) Time Alt. Az. Time Alt. Az. Time Alt. Az.
22 Jul 4.8 02:08:07 10° NE 02:12:21 26° E 02:16:33 10° SSE visible
23 Jul 5.5 01:32:12 10° ENE 01:34:28 13° E 01:36:44 10° ESE visible
23 Jul 3.1 03:09:09 10° NNE 03:14:16 81° ESE 03:19:21 10° SSW visible
24 Jul 4.2 02:31:57 10° NNE 02:36:45 40° E 02:41:30 10° SSE visible
25 Jul 5.2 01:55:14 10° NE 01:59:00 21° E 02:02:45 10° SE visible
26 Jul 3.4 02:55:59 10° NNE 03:01:02 64° ESE 03:06:04 10° S visible
27 Jul 4.5 02:18:54 10° NNE 02:23:26 32° E 02:27:57 10° SSE visible
28 Jul 5.4 01:42:30 10° NE 01:45:37 16° E 01:48:44 10° SE visible
28 Jul 3.0 03:20:09 10° NNE 03:25:16 83° WNW 03:30:20 10° SSW visible
29 Jul 3.8 02:42:50 10° NNE 02:47:47 50° E 02:52:42 10° S visible
30 Jul 4.9 02:05:55 10° NE 02:10:06 25° E 02:14:16 10° SSE visible
31 Jul 5.5 01:30:05 10° ENE 01:32:13 12° E 01:34:20 10° ESE visible
31 Jul 3.2 03:06:55 10° NNE 03:12:02 79° ESE 03:17:07 10° S visible
